z/d,0,0,50,50,100,100,200,200,300,300,400,400,500,500,750,750,1000,1000,2000,2000,3000,3000,4000,4000,4700,4700
2016.10.31-01:00,.97,71.96,1.04,72.50,.88,70.94,.99,75.45,.88,79.86,.89,70.83,.83,72.65,.67,67.25,.47,58.72,.25,61.23,.20,43.86,.28,35.74,.04,90.00
2016.10.31-02:00,.93,74.36,1.00,75.29,.86,69.30,.94,72.93,.82,75.48,.88,69.92,.81,72.79,.67,71.03,.48,62.34,.22,59.81,.16,39.37,.24,31.36,.03,90.00
2016.10.31-03:00,.89,76.97,.96,77.79,.85,68.01,.92,70.52,.80,71.11,.87,69.94,.78,73.22,.64,75.24,.47,66.25,.19,58.12,.12,31.67,.21,25.90,.02,90.00
2016.10.31-04:00,.85,79.72,.92,80.18,.86,67.64,.93,68.99,.82,67.89,.88,70.74,.77,73.33,.59,78.75,.45,69.62,.18,57.11,.10,22.20,.19,21.42,.02,90.00
2016.10.31-05:00,.81,82.19,.86,82.57,.87,68.25,.94,68.70,.85,66.41,.90,72.15,.77,73.07,.54,80.82,.42,72.25,.17,57.66,.09,15.90,.19,19.91,.02,90.00
2016.10.31-06:00,.73,84.02,.79,84.67,.87,69.59,.96,69.58,.89,66.51,.92,74.04,.78,72.95,.50,81.06,.40,74.05,.18,59.27,.10,16.17,.20,21.62,.02,90.00
2016.10.31-07:00,.65,84.61,.70,85.71,.86,71.34,.96,71.16,.93,67.46,.95,76.00,.81,73.18,.48,79.33,.38,74.68,.20,60.60,.12,21.38,.22,25.65,.03,90.00
2016.10.31-08:00,.59,83.72,.63,84.89,.84,73.46,.96,72.97,.96,68.81,.96,77.73,.84,73.75,.48,76.35,.38,74.24,.22,61.02,.15,27.05,.24,30.16,.04,90.00
2016.10.31-09:00,.55,81.15,.58,82.36,.84,76.02,.97,74.54,.99,70.27,.98,79.02,.88,74.37,.50,73.01,.39,72.73,.23,60.09,.18,31.28,.26,33.97,.04,90.00
2016.10.31-10:00,.50,76.93,.57,79.41,.84,78.77,.97,75.46,1.02,71.57,.98,79.79,.90,74.83,.53,70.11,.40,70.64,.25,58.20,.20,34.29,.28,36.87,.05,90.00
2016.10.31-11:00,.47,72.69,.59,77.50,.84,81.37,.97,75.69,1.04,72.64,.97,80.18,.92,75.32,.56,68.47,.40,68.86,.25,55.57,.21,35.38,.28,38.08,.05,90.00
2016.10.31-12:00,.45,69.53,.61,76.39,.83,83.03,.96,75.01,1.05,73.10,.95,80.10,.91,75.83,.58,68.15,.40,67.77,.24,52.84,.20,35.19,.27,37.81,.05,90.00
2016.10.31-13:00,.44,65.81,.63,75.35,.80,83.31,.94,73.56,1.03,73.02,.91,79.61,.89,76.44,.58,68.98,.39,67.38,.23,50.12,.19,33.19,.24,35.50,.04,90.00
2016.10.31-14:00,.46,61.72,.65,74.44,.76,82.54,.93,72.07,1.02,73.04,.87,79.06,.85,77.33,.56,70.71,.38,67.50,.21,47.97,.16,30.09,.22,31.66,.03,90.00
2016.10.31-15:00,.50,60.89,.66,73.65,.73,81.11,.92,71.06,1.00,73.51,.83,78.41,.81,78.17,.54,72.40,.37,67.40,.20,46.69,.14,26.14,.19,26.72,.02,90.00
2016.10.31-16:00,.55,65.34,.67,73.37,.71,79.83,.93,71.08,1.00,74.64,.81,77.59,.79,78.57,.51,73.32,.37,67.06,.19,47.18,.12,22.47,.17,21.85,.01,90.00
2016.10.31-17:00,.58,69.93,.66,73.38,.69,79.29,.95,72.20,1.01,76.30,.81,76.53,.78,78.15,.49,73.04,.37,67.13,.19,50.31,.11,21.64,.17,18.97,.01,90.00
2016.10.31-18:00,.52,69.44,.64,72.86,.66,79.27,.96,74.26,1.03,78.40,.83,75.53,.79,77.18,.48,71.73,.37,67.82,.21,54.83,.12,24.83,.18,19.25,.01,90.00
2016.10.31-19:00,.47,63.82,.62,70.92,.64,78.78,.98,76.79,1.05,80.69,.86,74.75,.81,76.21,.50,69.62,.38,68.43,.24,58.87,.14,30.89,.21,22.86,.01,90.00
2016.10.31-20:00,.46,56.47,.63,68.38,.65,77.86,1.00,79.48,1.07,82.89,.90,74.21,.85,75.53,.52,67.01,.39,68.11,.27,61.50,.17,36.72,.24,27.96,.02,90.00
2016.10.31-21:00,.53,56.98,.67,67.02,.68,77.06,1.02,81.89,1.07,84.61,.94,73.65,.88,75.04,.55,64.56,.40,66.97,.30,63.12,.20,40.92,.28,32.79,.03,90.00
2016.10.31-22:00,.58,57.89,.73,67.81,.71,76.87,1.02,83.62,1.06,85.56,.96,72.71,.90,74.30,.60,62.41,.41,65.02,.31,64.05,.23,43.18,.30,36.28,.04,90.00
2016.10.31-23:00,.64,59.39,.79,70.35,.75,77.20,1.00,84.44,1.03,85.49,.98,71.42,.91,73.30,.64,61.03,.43,62.82,.31,64.62,.24,44.35,.32,38.84,.05,90.00
2016.10.31-24:00,.66,61.17,.83,73.78,.75,77.78,.96,84.26,.98,84.35,.99,70.13,.91,72.46,.69,61.09,.44,61.36,.29,64.30,.24,43.95,.31,39.99,.05,90.00
2016.11.01-01:00,.65,61.34,.84,76.94,.74,77.72,.90,82.61,.92,81.77,.98,69.03,.90,72.06,.72,63.20,.46,61.96,.27,62.70,.22,41.84,.29,39.58,.04,90.00
2016.11.01-02:00,.69,57.96,.84,79.21,.72,76.72,.85,79.60,.86,77.90,.98,68.46,.88,72.29,.74,67.32,.47,64.88,.23,59.58,.18,37.28,.25,36.85,.03,90.00
2016.11.01-03:00,.73,63.27,.83,80.75,.71,75.12,.82,76.02,.84,73.63,.97,68.81,.85,73.05,.72,72.43,.47,68.60,.20,55.50,.15,30.37,.22,31.72,.02,90.00
2016.11.01-04:00,.54,119.75,.81,82.14,.71,73.70,.82,73.15,.85,70.36,.97,70.19,.82,73.97,.68,77.28,.45,71.30,.18,51.90,.12,22.62,.19,25.35,.02,90.00
2016.11.01-05:00,.53,126.88,.78,83.95,.71,73.19,.83,71.95,.88,68.97,.98,72.30,.80,74.68,.62,81.09,.41,72.36,.17,50.36,.11,17.45,.18,20.42,.01,90.00
2016.11.01-06:00,.54,137.28,.74,85.96,.71,73.50,.86,72.34,.91,69.11,.99,74.53,.80,74.94,.56,83.21,.38,72.27,.18,51.00,.11,16.92,.18,18.65,.01,90.00
2016.11.01-07:00,.49,145.65,.67,87.55,.71,74.24,.87,73.70,.95,70.09,1.01,76.55,.82,74.99,.52,83.27,.36,71.93,.19,52.95,.13,20.37,.20,20.07,.01,90.00
2016.11.01-08:00,.39,147.99,.59,87.53,.69,74.85,.87,75.25,.97,71.27,1.02,78.26,.84,75.11,.50,81.30,.36,71.47,.22,54.83,.15,25.56,.23,23.65,.02,90.00
2016.11.01-09:00,.29,143.95,.52,84.39,.69,75.45,.87,76.51,.99,72.45,1.03,79.64,.87,75.22,.49,77.70,.37,70.02,.24,55.62,.18,30.41,.26,27.98,.03,90.00
2016.11.01-10:00,.24,139.07,.48,78.42,.71,76.44,.88,77.32,1.02,73.60,1.03,80.72,.89,75.17,.50,73.18,.37,66.98,.26,54.87,.20,34.54,.28,32.48,.04,90.00
2016.11.01-11:00,.21,124.22,.47,71.86,.72,77.74,.89,77.53,1.05,74.62,1.03,81.53,.91,74.98,.53,69.08,.39,63.38,.26,52.59,.21,37.28,.29,36.33,.05,90.00
2016.11.01-12:00,.18,110.53,.47,65.71,.72,78.69,.89,76.69,1.05,75.13,1.02,81.91,.91,74.66,.55,66.56,.40,60.96,.26,49.50,.21,38.27,.28,38.94,.05,90.00
2016.11.01-13:00,.19,95.23,.50,60.55,.72,79.02,.88,74.73,1.04,75.11,.98,81.88,.90,74.47,.57,66.11,.42,60.67,.26,46.42,.19,36.78,.25,39.46,.04,90.00
2016.11.01-14:00,.23,82.21,.54,56.86,.71,78.72,.87,72.06,1.02,74.82,.92,81.52,.87,74.57,.58,67.31,.44,62.18,.25,44.23,.17,32.48,.22,37.21,.03,90.00
2016.11.01-15:00,.31,70.12,.59,54.22,.69,77.86,.87,69.39,1.00,74.54,.87,80.69,.84,74.77,.58,69.19,.45,64.69,.23,43.72,.14,25.92,.18,31.98,.02,90.00
2016.11.01-16:00,.41,61.93,.63,52.58,.67,76.89,.89,67.87,.99,74.80,.83,79.50,.81,74.98,.56,70.86,.45,67.36,.22,45.06,.12,18.95,.16,24.75,.01,90.00
2016.11.01-17:00,.49,59.64,.66,51.96,.66,76.00,.92,68.10,.99,75.83,.82,78.28,.80,75.18,.54,71.79,.43,69.91,.22,48.47,.11,15.56,.15,18.78,.00,90.00
2016.11.01-18:00,.55,58.60,.68,51.60,.64,74.57,.95,69.58,.99,77.35,.82,77.10,.80,75.06,.52,71.60,.42,72.26,.23,53.81,.11,18.56,.16,16.95,.00,90.00
2016.11.01-19:00,.59,58.04,.70,51.03,.62,71.87,.97,71.71,1.00,79.25,.83,76.07,.82,74.64,.51,70.19,.40,73.98,.26,59.70,.13,26.17,.18,19.36,.00,90.00
2016.11.01-20:00,.61,57.47,.72,50.46,.61,67.91,.99,74.48,1.00,81.68,.85,75.56,.84,74.59,.53,68.34,.39,74.71,.29,64.20,.16,33.18,.21,23.43,.01,90.00
2016.11.01-21:00,.65,57.38,.77,51.17,.64,64.16,1.00,77.74,1.01,84.45,.88,75.55,.88,75.10,.56,66.80,.39,74.04,.31,66.79,.19,37.76,.25,27.61,.02,90.00
2016.11.01-22:00,.72,58.07,.82,52.71,.68,60.80,1.01,80.28,.99,86.39,.89,74.80,.90,75.17,.59,65.22,.39,71.43,.32,68.10,.23,41.35,.29,32.16,.03,90.00
2016.11.01-23:00,.78,61.41,.87,55.98,.73,59.17,1.00,82.03,.96,87.03,.90,73.20,.91,74.68,.64,63.97,.40,67.35,.32,68.17,.25,43.81,.31,36.23,.04,90.00
2016.11.01-24:00,.81,66.57,.91,60.19,.79,58.69,.97,82.67,.90,85.93,.91,71.03,.91,73.79,.68,63.53,.41,63.16,.29,66.83,.25,45.07,.32,39.33,.05,90.00
2016.11.02-01:00,.83,70.91,.92,64.27,.83,58.23,.92,81.79,.84,82.85,.91,68.71,.89,72.80,.72,64.41,.44,60.81,.26,63.94,.23,44.88,.30,41.02,.05,90.00
2016.11.02-02:00,.82,74.06,.90,67.88,.85,57.67,.86,79.13,.79,77.71,.90,66.52,.87,71.86,.74,66.81,.46,61.30,.22,59.23,.20,42.49,.27,40.50,.04,90.00
2016.11.02-03:00,.79,77.38,.86,71.28,.86,57.94,.82,75.40,.76,71.43,.91,65.09,.85,71.31,.74,70.71,.47,64.16,.19,52.31,.17,36.55,.22,36.61,.03,90.00
2016.11.02-04:00,.75,80.95,.81,74.19,.88,59.32,.81,71.56,.78,65.72,.91,64.70,.82,71.35,.71,75.50,.46,67.86,.17,44.46,.14,27.79,.18,29.82,.02,90.00
2016.11.02-05:00,.71,84.88,.77,76.36,.91,61.80,.82,68.51,.82,62.15,.93,65.52,.80,72.01,.65,80.25,.43,70.80,.17,38.57,.12,19.46,.16,22.46,.01,90.00
2016.11.02-06:00,.65,86.94,.72,77.24,.92,64.67,.84,66.51,.87,60.85,.94,67.19,.80,72.90,.59,83.73,.39,72.05,.18,37.15,.11,16.29,.16,18.24,.01,90.00
2016.11.02-07:00,.59,87.18,.66,77.25,.93,68.21,.87,66.29,.93,61.91,.96,69.84,.81,74.18,.53,85.14,.36,71.40,.20,39.27,.12,18.10,.17,17.76,.01,90.00
2016.11.02-08:00,.51,85.28,.59,74.53,.90,71.39,.89,67.09,.97,64.04,.98,72.75,.83,75.36,.50,83.78,.35,69.25,.23,43.16,.14,23.39,.19,20.62,.01,90.00
2016.11.02-09:00,.45,79.65,.54,67.90,.88,73.94,.91,68.72,1.00,67.06,1.00,75.85,.85,76.54,.48,80.12,.35,66.22,.26,46.44,.17,28.67,.22,24.59,.02,90.00
2016.11.02-10:00,.43,69.11,.55,59.13,.86,75.27,.93,70.57,1.03,70.45,1.02,78.78,.87,77.51,.49,75.24,.37,62.85,.28,48.31,.19,33.13,.24,28.87,.03,90.00
2016.11.02-11:00,.45,59.47,.61,51.99,.85,75.19,.96,72.07,1.06,73.66,1.02,81.22,.88,78.10,.51,70.52,.39,59.82,.30,48.82,.20,36.53,.26,32.91,.04,90.00
2016.11.02-12:00,.51,54.64,.69,48.33,.85,74.21,.98,72.90,1.07,76.35,1.01,82.90,.88,78.15,.54,66.96,.41,57.81,.31,48.40,.21,38.47,.26,36.12,.04,90.00
2016.11.02-13:00,.59,53.28,.77,47.70,.85,73.03,.99,72.97,1.06,78.29,.97,83.67,.86,77.70,.56,65.12,.44,57.46,.30,47.72,.19,38.55,.25,38.06,.04,90.00
2016.11.02-14:00,.67,54.07,.85,49.01,.85,72.12,.99,72.41,1.03,79.35,.91,83.49,.82,77.03,.58,65.25,.46,59.13,.29,47.40,.17,35.58,.22,37.73,.03,90.00
2016.11.02-15:00,.77,55.13,.90,51.22,.84,71.29,.99,71.48,.98,79.37,.85,82.19,.78,76.25,.58,67.08,.48,62.65,.27,48.31,.14,28.68,.18,34.14,.02,90.00
2016.11.02-16:00,.86,56.43,.94,54.02,.83,70.30,.99,70.74,.94,78.47,.80,79.78,.75,75.34,.58,69.61,.49,66.95,.25,50.99,.12,19.39,.15,27.51,.01,90.00
2016.11.02-17:00,.93,58.79,.97,57.35,.82,69.48,1.00,70.96,.91,77.26,.78,77.03,.74,74.40,.55,71.57,.48,70.88,.24,55.22,.11,12.72,.13,20.11,.00,270.00
2016.11.02-18:00,.97,61.90,1.00,60.83,.83,69.14,1.02,72.41,.91,76.48,.78,74.92,.73,73.52,.53,72.06,.46,74.06,.24,60.58,.11,12.80,.13,15.03,.01,270.00
2016.11.02-19:00,1.01,64.91,1.03,63.92,.86,69.20,1.04,74.85,.91,76.63,.79,73.97,.75,72.86,.51,70.71,.44,76.21,.25,65.74,.12,19.16,.14,14.39,.01,270.00
2016.11.02-20:00,1.04,67.39,1.04,66.21,.89,69.45,1.05,77.89,.92,77.86,.82,74.29,.77,72.83,.52,68.31,.42,77.23,.27,69.28,.15,27.96,.17,17.97,.00,270.00
2016.11.02-21:00,1.07,69.05,1.06,67.42,.93,69.42,1.05,80.67,.94,79.59,.84,75.18,.80,73.34,.54,66.29,.41,77.39,.29,70.99,.18,35.16,.20,22.84,.01,90.00
2016.11.02-22:00,1.12,70.68,1.10,68.42,.99,69.45,1.05,82.60,.95,81.15,.86,75.77,.84,73.80,.57,64.99,.40,76.39,.30,71.10,.22,40.28,.24,27.67,.02,90.00
2016.11.02-23:00,1.17,72.96,1.15,70.02,1.05,69.84,1.05,83.44,.95,82.07,.88,75.57,.86,73.68,.61,64.19,.38,73.74,.29,69.69,.24,44.14,.27,32.21,.03,90.00
2016.11.02-24:00,1.22,75.90,1.19,72.41,1.11,70.50,1.04,83.14,.94,82.07,.89,74.49,.87,72.96,.65,63.96,.38,69.60,.27,66.36,.26,47.02,.29,36.14,.04,90.00
2016.11.03-01:00,1.24,79.28,1.21,75.55,1.15,71.31,1.02,81.93,.92,81.06,.89,72.85,.88,72.00,.68,64.53,.39,65.15,.24,60.41,.25,48.89,.29,39.08,.04,90.00
2016.11.03-02:00,1.23,82.73,1.20,79.17,1.17,72.06,.99,79.83,.89,78.89,.88,70.93,.87,71.12,.71,66.08,.41,62.07,.21,51.71,.22,49.30,.27,40.47,.04,90.00
2016.11.03-03:00,1.18,85.75,1.15,82.78,1.17,72.72,.96,76.89,.86,75.52,.88,68.95,.86,70.50,.72,68.55,.43,61.41,.19,42.15,.18,47.17,.23,39.27,.03,90.00
2016.11.03-04:00,1.10,87.41,1.09,85.27,1.17,73.74,.95,73.69,.84,71.79,.88,67.49,.84,70.39,.72,71.60,.44,62.51,.19,34.53,.14,40.95,.19,34.62,.02,90.00
2016.11.03-05:00,1.03,89.01,1.03,86.40,1.17,75.51,.95,71.35,.85,69.24,.89,67.31,.82,71.15,.69,74.88,.44,63.96,.19,30.12,.11,29.80,.16,27.07,.01,90.00
2016.11.03-06:00,.97,91.28,.99,86.49,1.18,77.93,.98,70.49,.88,68.55,.90,68.42,.81,72.63,.65,78.01,.43,64.94,.21,29.33,.10,17.85,.15,19.81,.01,90.00
2016.11.03-07:00,.91,93.83,.97,86.17,1.19,80.91,1.02,71.08,.92,69.34,.92,70.37,.81,74.29,.60,80.31,.40,65.04,.23,32.02,.10,12.49,.15,16.35,.00,90.00
2016.11.03-08:00,.87,96.04,.95,85.93,1.19,84.10,1.05,72.65,.95,70.97,.94,72.71,.81,75.80,.56,80.98,.38,64.05,.27,37.07,.12,15.40,.16,17.68,.01,90.00
2016.11.03-09:00,.83,96.85,.94,85.06,1.18,86.67,1.07,74.59,.97,72.86,.95,75.19,.82,77.20,.53,79.99,.37,62.45,.30,42.72,.14,21.99,.18,21.70,.01,90.00
2016.11.03-10:00,.79,94.72,.93,82.82,1.14,87.79,1.09,76.31,.99,74.62,.96,77.49,.83,78.48,.51,77.88,.38,60.88,.33,47.59,.17,28.04,.21,26.00,.02,90.00
2016.11.03-11:00,.76,90.42,.93,79.54,1.10,87.21,1.11,77.52,1.00,76.14,.97,79.41,.83,79.43,.52,75.35,.40,59.40,.36,51.10,.19,32.73,.23,30.00,.03,90.00
2016.11.03-12:00,.76,85.61,.95,76.29,1.07,85.28,1.12,78.14,1.02,77.42,.97,80.82,.83,79.80,.53,73.02,.42,58.05,.36,53.30,.21,36.00,.23,33.51,.03,90.00
2016.11.03-13:00,.78,81.63,.97,74.10,1.05,82.86,1.13,78.23,1.02,78.43,.95,81.69,.82,79.55,.55,71.53,.45,57.58,.35,54.75,.20,37.54,.23,35.97,.03,90.00
2016.11.03-14:00,.81,78.21,1.00,73.15,1.04,80.66,1.13,77.84,1.01,78.95,.92,81.87,.80,78.76,.56,71.23,.48,58.53,.33,56.08,.19,36.94,.21,36.73,.02,90.00
2016.11.03-15:00,.87,74.00,1.03,72.78,1.04,78.86,1.14,77.12,.98,78.72,.88,81.30,.77,77.72,.56,72.12,.50,61.00,.30,57.73,.17,34.00,.18,35.15,.02,90.00
2016.11.03-16:00,.92,71.21,1.05,72.02,1.04,77.10,1.15,76.49,.96,77.68,.84,80.00,.74,76.69,.55,73.71,.51,64.58,.27,60.04,.14,29.27,.15,30.86,.01,90.00
2016.11.03-17:00,.97,69.40,1.07,70.87,1.05,75.45,1.15,76.67,.94,76.49,.81,78.47,.72,75.89,.53,74.90,.51,68.45,.24,62.92,.13,24.71,.12,24.06,.00,270.00
2016.11.03-18:00,1.02,68.53,1.11,69.97,1.08,74.53,1.16,78.07,.93,75.90,.79,77.30,.72,75.37,.51,74.52,.51,72.04,.23,66.17,.12,22.94,.11,16.03,.01,270.00
2016.11.03-19:00,1.08,68.71,1.15,69.62,1.12,74.54,1.16,80.44,.93,76.22,.79,76.76,.72,75.12,.49,72.21,.49,75.12,.23,69.27,.12,25.48,.12,10.66,.01,270.00
2016.11.03-20:00,1.15,69.37,1.21,69.59,1.16,75.03,1.16,83.15,.94,77.20,.80,76.82,.73,75.19,.47,68.49,.47,77.24,.24,71.34,.14,31.36,.14,11.42,.01,270.00
2016.11.03-21:00,1.21,69.96,1.27,69.64,1.19,75.45,1.14,85.51,.96,78.32,.82,77.02,.75,75.38,.48,64.57,.44,78.20,.26,72.10,.17,37.92,.17,16.74,.00,270.00
2016.11.03-22:00,1.28,70.61,1.33,69.94,1.22,75.54,1.11,86.97,.97,79.10,.83,76.77,.77,75.16,.50,61.17,.41,77.57,.27,71.56,.20,43.46,.21,23.38,.01,90.00
2016.11.03-23:00,1.35,71.91,1.40,70.95,1.27,75.50,1.08,87.34,.98,79.59,.85,75.96,.79,74.25,.55,58.40,.39,74.68,.27,69.47,.23,47.95,.25,29.75,.02,90.00
2016.11.03-24:00,1.42,73.98,1.45,72.68,1.30,75.29,1.05,86.49,.99,79.80,.87,74.72,.81,72.74,.60,56.97,.38,70.12,.26,65.10,.25,51.38,.28,35.01,.03,90.00
2016.11.04-01:00,1.46,76.49,1.49,74.92,1.33,74.82,1.01,84.36,.98,79.60,.88,73.18,.83,70.98,.67,57.51,.39,65.78,.24,57.56,.24,53.65,.28,38.82,.04,90.00
2016.11.04-02:00,1.47,79.49,1.49,77.84,1.34,74.38,.97,81.25,.96,78.86,.89,71.54,.84,69.34,.73,59.78,.42,62.96,.23,46.93,.22,54.63,.27,41.09,.04,90.00
2016.11.04-03:00,1.44,82.74,1.46,81.28,1.34,74.17,.94,77.37,.93,77.22,.89,69.77,.84,67.90,.76,63.03,.44,61.64,.23,36.32,.19,54.22,.24,41.83,.04,90.00
2016.11.04-04:00,1.39,85.90,1.39,84.65,1.34,74.43,.92,73.08,.90,74.79,.89,68.23,.83,66.90,.77,66.80,.45,61.14,.24,29.49,.15,51.42,.20,40.21,.03,90.00
2016.11.04-05:00,1.31,88.86,1.32,87.44,1.34,75.40,.93,69.54,.90,72.84,.90,67.93,.83,67.14,.76,71.04,.45,60.82,.26,27.13,.11,43.58,.16,34.70,.02,90.00
2016.11.04-06:00,1.22,91.18,1.23,89.13,1.33,76.80,.97,67.60,.91,72.04,.92,68.97,.82,68.49,.73,75.38,.44,60.32,.27,28.54,.09,30.09,.14,26.18,.01,90.00
2016.11.04-07:00,1.13,92.65,1.15,89.71,1.33,78.63,1.02,67.29,.93,71.95,.94,70.66,.82,70.14,.68,79.14,.43,59.76,.30,32.99,.09,17.80,.13,18.46,.01,90.00
2016.11.04-08:00,1.04,93.21,1.08,89.39,1.31,80.80,1.06,68.12,.95,72.14,.95,72.54,.82,71.71,.62,81.70,.42,59.49,.32,39.40,.11,14.00,.14,15.10,.00,90.00
2016.11.04-09:00,.95,92.42,1.03,87.96,1.29,82.89,1.10,69.64,.97,72.61,.96,74.59,.83,73.35,.57,82.47,.41,59.22,.35,46.07,.13,17.49,.16,16.91,.01,90.00
2016.11.04-10:00,.88,89.39,.99,85.12,1.25,84.29,1.13,71.41,.99,73.37,.97,76.80,.84,75.29,.53,81.41,.41,58.65,.37,51.84,.16,23.59,.18,21.58,.01,90.00
2016.11.04-11:00,.82,84.02,.97,80.93,1.21,84.49,1.16,72.96,1.01,74.20,.98,78.68,.86,77.08,.51,78.58,.42,57.69,.39,56.54,.19,29.47,.20,26.70,.02,90.00
2016.11.04-12:00,.80,77.32,.96,76.28,1.17,83.60,1.18,74.12,1.03,75.05,.98,79.95,.87,78.27,.51,74.90,.44,57.02,.39,60.25,.20,33.99,.21,30.92,.02,90.00
2016.11.04-13:00,.82,71.46,.97,72.33,1.13,81.92,1.19,74.80,1.04,75.86,.97,80.53,.87,78.64,.52,71.74,.47,57.32,.38,63.05,.21,36.98,.21,33.96,.02,90.00
2016.11.04-14:00,.86,68.09,.99,69.75,1.10,79.83,1.19,75.06,1.04,76.53,.95,80.56,.86,78.39,.55,70.16,.50,58.88,.35,65.08,.20,38.53,.20,35.72,.02,90.00
2016.11.04-15:00,.90,66.42,1.02,68.21,1.09,77.62,1.18,75.15,1.03,77.01,.93,80.30,.85,78.03,.56,70.51,.52,61.65,.31,66.40,.18,38.60,.18,35.46,.01,90.00
2016.11.04-16:00,.95,65.27,1.04,66.86,1.08,75.42,1.18,75.38,1.02,77.26,.90,79.91,.83,77.98,.57,72.15,.54,64.91,.27,67.11,.16,37.86,.15,32.47,.01,90.00
2016.11.04-17:00,.99,64.05,1.07,65.37,1.09,73.45,1.18,76.07,1.00,77.28,.87,79.40,.80,78.29,.55,73.71,.54,67.80,.24,67.60,.14,37.74,.12,26.35,.00,270.00
2016.11.04-18:00,1.04,63.29,1.11,64.27,1.10,72.22,1.17,77.26,.98,77.23,.84,78.67,.77,78.80,.53,73.93,.53,70.08,.22,68.55,.13,39.14,.11,17.45,.01,270.00
2016.11.04-19:00,1.11,63.78,1.18,64.25,1.14,72.20,1.16,78.78,.98,77.29,.82,77.78,.75,79.28,.49,72.05,.51,72.02,.21,69.81,.12,41.76,.11,9.72,.01,270.00
2016.11.04-20:00,1.19,65.30,1.25,65.21,1.18,73.29,1.16,80.48,.99,77.61,.82,76.99,.74,79.57,.47,68.05,.49,73.59,.21,70.18,.13,44.96,.13,8.08,.01,270.00
2016.11.04-21:00,1.25,66.75,1.31,66.32,1.21,74.75,1.16,82.08,1.01,78.09,.84,76.41,.74,79.58,.47,63.39,.47,74.60,.22,68.93,.15,48.24,.15,12.47,.01,270.00
2016.11.04-22:00,1.31,67.92,1.36,67.41,1.23,76.01,1.15,83.30,1.03,78.52,.86,75.79,.75,79.04,.50,59.58,.44,74.58,.24,66.21,.17,51.31,.19,19.74,.00,90.00
2016.11.04-23:00,1.32,71.03,1.41,69.07,1.25,77.00,1.14,83.95,1.04,78.82,.88,74.94,.76,77.62,.54,57.30,.42,73.04,.25,61.88,.20,53.97,.23,27.16,.02,90.00
2016.11.04-24:00,1.38,72.37,1.45,71.39,1.25,77.52,1.12,83.82,1.05,78.77,.91,73.58,.77,75.06,.59,56.52,.41,69.99,.26,55.88,.22,56.36,.25,33.97,.03,90.00
2016.11.05-01:00,1.44,74.49,1.48,74.14,1.25,77.31,1.09,82.68,1.05,78.15,.93,71.72,.79,71.53,.65,57.33,.41,66.76,.26,48.75,.22,58.03,.27,39.36,.04,90.00
2016.11.05-02:00,1.45,77.86,1.48,77.21,1.24,76.46,1.05,80.51,1.04,77.01,.95,69.84,.81,67.99,.71,59.78,.43,64.74,.28,41.57,.21,58.11,.26,42.56,.04,90.00
2016.11.05-03:00,1.42,81.23,1.44,80.33,1.22,75.09,1.01,77.41,1.02,75.34,.97,68.19,.84,65.15,.76,63.17,.45,63.83,.29,36.08,.18,56.56,.24,43.72,.04,90.00
2016.11.05-04:00,1.35,84.02,1.37,83.11,1.20,73.55,.98,73.73,.99,73.34,.97,67.06,.86,63.40,.78,67.01,.46,63.35,.31,33.39,.15,52.85,.20,42.56,.04,90.00
2016.11.05-05:00,1.27,86.48,1.28,85.39,1.19,72.65,.97,70.53,.97,71.75,.98,66.96,.87,63.14,.77,71.11,.46,62.65,.32,33.39,.12,45.31,.17,37.98,.03,90.00
2016.11.05-06:00,1.18,88.68,1.19,87.02,1.20,72.75,.99,68.72,.97,71.09,.99,68.02,.88,64.37,.74,75.15,.45,61.31,.33,35.48,.10,33.92,.14,29.98,.02,90.00
2016.11.05-07:00,1.08,90.11,1.09,87.50,1.19,73.51,1.02,68.19,.98,71.20,1.00,69.86,.89,66.54,.69,78.67,.44,59.51,.35,39.17,.10,23.44,.13,21.14,.01,90.00
2016.11.05-08:00,.98,90.01,1.01,86.53,1.19,74.62,1.05,68.58,1.00,71.80,1.01,72.17,.89,69.34,.63,81.42,.44,57.62,.36,44.13,.11,18.78,.13,14.73,.00,90.00
2016.11.05-09:00,.89,87.84,.95,84.03,1.19,75.73,1.08,69.42,1.01,72.59,1.02,74.63,.89,72.36,.57,82.56,.43,55.60,.38,49.90,.13,20.98,.14,13.66,.00,90.00
2016.11.05-10:00,.81,82.14,.91,80.21,1.17,76.49,1.10,70.32,1.03,73.32,1.02,76.95,.89,75.24,.51,81.21,.44,53.84,.40,55.53,.16,26.60,.16,16.70,.00,90.00
2016.11.05-11:00,.78,74.16,.89,75.79,1.16,76.72,1.13,71.07,1.04,73.81,1.02,78.75,.89,77.45,.48,77.08,.45,52.69,.41,60.27,.18,32.82,.18,21.59,.01,90.00
2016.11.05-12:00,.80,66.24,.89,71.95,1.15,76.59,1.15,71.68,1.07,74.10,1.02,79.77,.89,78.50,.47,70.97,.47,52.30,.40,63.99,.20,38.54,.20,26.75,.01,90.00
2016.11.05-13:00,.86,61.00,.91,69.17,1.14,76.22,1.17,72.10,1.09,74.22,1.02,80.01,.90,78.43,.50,65.32,.50,53.19,.39,66.72,.21,43.07,.21,30.88,.02,90.00
2016.11.05-14:00,.93,58.60,.94,66.85,1.12,75.48,1.18,72.11,1.10,74.09,1.01,79.65,.90,77.71,.54,62.40,.52,55.69,.36,68.49,.21,46.45,.20,33.71,.02,90.00
2016.11.05-15:00,1.02,58.63,.97,65.04,1.11,74.46,1.18,71.94,1.09,73.96,.98,79.09,.88,76.89,.58,62.27,.55,59.43,.32,69.14,.19,48.76,.19,35.07,.02,90.00
2016.11.05-16:00,1.11,60.51,1.02,64.14,1.10,73.57,1.17,72.13,1.09,74.23,.95,78.70,.86,76.30,.61,63.62,.56,63.30,.28,68.40,.17,50.45,.17,34.91,.01,90.00
2016.11.05-17:00,1.14,63.16,1.07,63.78,1.10,72.83,1.17,72.83,1.07,74.88,.92,78.41,.84,75.82,.62,65.41,.56,66.65,.25,66.47,.15,52.39,.15,33.29,.01,90.00
2016.11.05-18:00,1.15,64.47,1.12,63.60,1.10,72.11,1.16,73.86,1.06,75.56,.88,77.82,.81,75.23,.61,67.25,.55,69.48,.23,64.10,.13,54.56,.12,29.30,.00,90.00
2016.11.05-19:00,1.18,65.22,1.16,63.83,1.11,71.71,1.15,75.11,1.04,76.18,.86,76.91,.80,74.81,.60,69.05,.54,71.94,.22,61.82,.11,55.62,.11,22.59,.00,270.00
2016.11.05-20:00,1.22,66.23,1.21,64.71,1.13,71.85,1.15,76.43,1.03,76.73,.84,75.88,.79,74.78,.59,70.20,.52,73.68,.22,60.00,.11,55.18,.12,17.42,.00,270.00
2016.11.05-21:00,1.26,67.47,1.26,65.90,1.15,72.26,1.14,77.62,1.03,77.16,.84,74.90,.79,75.14,.58,70.13,.50,74.26,.24,58.74,.12,54.11,.13,17.59,.00,90.00
2016.11.05-22:00,1.30,68.79,1.30,67.14,1.17,72.66,1.13,78.58,1.02,77.42,.85,74.06,.79,75.66,.58,69.05,.47,73.64,.26,57.58,.14,53.18,.16,21.86,.01,90.00
2016.11.05-23:00,1.34,70.59,1.33,68.78,1.19,73.16,1.12,79.22,1.02,77.42,.87,73.14,.81,75.75,.59,67.39,.45,71.77,.28,55.70,.16,53.00,.19,27.73,.02,90.00
2016.11.05-24:00,1.37,73.16,1.36,71.13,1.21,73.68,1.11,79.35,1.03,76.93,.89,71.78,.82,74.74,.61,65.62,.43,68.67,.30,52.80,.19,53.77,.22,33.78,.03,90.00
2016.11.06-01:00,1.38,76.38,1.38,74.10,1.22,73.87,1.08,78.56,1.03,75.69,.92,69.77,.84,72.49,.64,64.53,.43,65.20,.32,49.34,.20,54.86,.24,38.75,.04,90.00
2016.11.06-02:00,1.37,80.07,1.38,77.51,1.22,73.77,1.06,76.69,1.03,73.82,.96,67.48,.87,69.71,.69,64.94,.44,62.66,.33,45.88,.21,55.11,.24,41.45,.04,90.00
2016.11.06-03:00,1.31,84.04,1.34,80.90,1.22,73.68,1.03,74.03,1.03,71.81,.99,65.54,.90,67.44,.72,66.98,.46,61.52,.34,42.99,.19,53.86,.23,41.56,.04,90.00
2016.11.06-04:00,1.22,87.83,1.27,83.47,1.20,73.52,1.01,70.98,1.02,69.90,1.02,64.24,.92,66.03,.74,69.98,.48,61.30,.35,41.33,.18,51.10,.21,39.34,.03,90.00
2016.11.06-05:00,1.12,91.30,1.18,85.04,1.18,73.59,1.00,68.28,1.01,68.44,1.04,63.86,.93,65.64,.74,73.38,.49,61.35,.36,41.19,.16,46.30,.19,34.61,.03,90.00
2016.11.06-06:00,1.03,94.60,1.11,85.83,1.17,74.35,1.01,66.77,1.01,67.89,1.06,64.75,.93,66.43,.70,76.77,.49,61.00,.37,42.24,.14,39.67,.17,28.19,.02,90.00
2016.11.06-07:00,.95,98.31,1.04,86.05,1.16,75.53,1.02,66.41,1.01,68.08,1.06,66.75,.92,68.17,.65,79.44,.48,59.78,.37,44.07,.13,33.74,.17,22.88,.01,90.00
2016.11.06-08:00,.85,102.23,.97,85.41,1.13,76.44,1.03,66.54,1.01,68.54,1.06,69.47,.91,70.60,.59,81.05,.48,58.16,.38,46.68,.13,30.29,.16,19.99,.01,90.00
2016.11.06-09:00,.76,105.38,.92,83.46,1.10,76.65,1.05,66.68,1.01,68.96,1.05,72.35,.89,73.31,.53,81.11,.48,56.44,.38,50.15,.14,30.41,.17,20.20,.00,90.00
2016.11.06-10:00,.66,106.74,.87,80.20,1.08,76.17,1.07,66.83,1.03,69.34,1.04,74.89,.87,75.66,.47,78.58,.48,54.76,.39,53.99,.16,33.59,.18,23.28,.01,90.00
2016.11.06-11:00,.56,105.40,.84,75.97,1.06,75.12,1.10,67.16,1.05,69.88,1.03,76.76,.86,77.13,.44,72.94,.48,53.79,.40,57.52,.18,37.92,.19,27.76,.01,90.00
2016.11.06-12:00,.47,99.26,.82,71.01,1.05,73.50,1.13,67.68,1.08,70.59,1.03,77.77,.86,77.27,.44,65.25,.49,53.66,.40,60.31,.20,42.48,.20,32.79,.02,90.00
2016.11.06-13:00,.41,89.13,.81,66.29,1.04,71.74,1.16,68.57,1.11,71.65,1.03,78.20,.87,76.40,.48,58.56,.51,54.46,.39,62.21,.20,46.34,.20,37.16,.02,90.00
2016.11.06-14:00,.40,76.46,.82,62.53,1.05,70.21,1.19,69.76,1.13,72.94,1.03,78.34,.89,75.18,.54,55.07,.53,56.33,.37,63.23,.20,49.12,.20,40.11,.02,90.00
2016.11.06-15:00,.46,64.72,.86,59.98,1.07,69.09,1.20,71.09,1.14,74.28,1.01,78.32,.89,74.10,.61,54.52,.55,59.12,.35,63.49,.19,50.87,.19,41.37,.02,90.00